Location: Chavenne
(46.6022°N, 3.2951°E)
Time: 19:53:49
(UTC+00:00)

STARLINK-1269 - Pass Details

Date: 09 April 2020
Orbit: 549 x 551 km, 53.0° (Epoch: 01 June)

Event Time Altitude Azimuth Distance (km) Brightness Sun altitude
Rises 19:42:03 0° 298° (WNW) 2,780 9.3 -12.9°
Reaches altitude 10° 19:44:21 10° 303° (WNW) 1,881 7.8 -13.3°
Maximum altitude 19:48:34 56° 22° (NNE) 683 4.1 -13.9°
Enters shadow 19:51:11 22° 94° (E) 1,276 4.9 -14.3°
